DW9234 Weather Reports


Display with metric or nautical units.
time (UTC)temp
F
wind
direction
speed
MPH
gust
MPH
rain 1hr
in
rain 24hr
in
rain mn
in
humidity
%
barometer
mb
20260901094004 72 189 0.0 0.0 0.00 0.00 0.00 78 1017.3
20260901092004 72 190 0.0 0.0 0.00 0.00 0.00 78 1017.7
20260901091005 72 190 0.0 0.0 0.00 0.00 0.00 78 1017.8
20260901090005 72 190 0.0 0.0 0.00 0.00 0.00 78 1017.8
20260901085004 72 190 0.0 0.0 0.00 0.00 0.00 78 1017.6
20260901083005 73 190 0.0 0.0 0.00 0.00 0.00 78 1017.8
20260901082004 73 190 0.0 0.0 0.00 0.00 0.00 78 1017.8
20260901081004 73 190 0.0 0.0 0.00 0.00 0.00 78 1017.7
20260901080004 73 190 0.0 0.0 0.00 0.00 0.00 78 1017.7
20260901075005 73 190 0.0 0.0 0.00 0.00 0.00 78 1017.7
20260901074004 73 192 0.0 0.0 0.00 0.00 0.00 78 1017.8
20260901073005 73 192 0.0 0.0 0.00 0.00 0.00 77 1017.8
20260901072005 73 196 0.0 0.0 0.00 0.00 0.00 77 1017.8
20260901071004 73 196 0.0 0.0 0.00 0.00 0.00 77 1017.8
20260901070004 73 196 0.0 0.0 0.00 0.00 0.00 77 1017.9
20260901065004 73 196 0.0 0.0 0.00 0.00 0.00 77 1018.1
20260901064004 73 196 0.0 0.0 0.00 0.00 0.00 76 1018.3
20260901063005 73 196 0.0 0.0 0.00 0.00 0.00 76 1018.2
20260901062004 73 196 0.0 0.0 0.00 0.00 0.00 76 1018.4
20260901061004 73 196 0.0 0.0 0.00 0.00 0.00 76 1018.4
20260901060004 73 196 0.0 0.0 0.00 0.00 0.00 76 1018.4
20260901055005 73 196 0.0 0.0 0.00 0.00 0.00 76 1018.4
20260901053005 73 196 0.0 0.0 0.00 0.00 0.00 76 1018.8
20260901052005 73 196 0.0 0.0 0.00 0.00 0.00 76 1018.7
20260901050005 73 196 0.0 0.0 0.00 0.00 0.00 75 1019.1
20260901043005 73 196 0.0 0.0 0.00 0.00 0.00 75 1019.4
20260901042004 73 196 0.0 0.0 0.00 0.00 0.00 75 1019.1
20260901041004 73 196 0.0 0.0 0.00 0.00 0.00 75 1019.3
20260901040004 73 196 0.0 0.0 0.00 0.00 0.10 75 1019.4
20260901034005 73 196 0.0 0.0 0.00 0.00 0.10 74 1019.5
20260901033004 73 196 0.0 0.0 0.00 0.00 0.10 74 1019.4
20260901032004 74 196 0.0 0.0 0.00 0.00 0.10 74 1019.5
20260901031004 74 196 0.0 0.0 0.00 0.00 0.10 74 1019.7
20260901030005 74 196 0.0 0.0 0.00 0.00 0.10 73 1019.5
20260901025004 74 196 0.0 0.0 0.00 0.00 0.10 73 1019.5
20260901024004 74 196 0.0 0.0 0.00 0.00 0.10 73 1019.4
20260901023005 74 196 0.0 0.0 0.00 0.00 0.10 72 1019.4
20260901022004 75 196 0.0 0.0 0.00 0.00 0.10 72 1019.5
20260901021004 75 196 0.0 0.0 0.00 0.00 0.10 72 1019.5
20260901020004 75 196 0.0 0.0 0.00 0.00 0.10 72 1019.5
20260901015004 75 196 0.0 0.0 0.00 0.00 0.10 72 1019.4
20260901014005 76 196 0.0 0.0 0.00 0.00 0.10 71 1019.4
20260901013004 76 196 0.0 0.0 0.00 0.00 0.10 71 1019.6
20260901012004 76 196 0.0 0.0 0.00 0.00 0.10 71 1019.4
20260901011004 76 196 0.0 0.0 0.00 0.00 0.10 71 1019.2
20260901005004 76 196 0.0 0.0 0.00 0.00 0.10 71 1019.1
20260901003004 77 196 0.0 0.0 0.00 0.00 0.10 70 1019.1
20260901002004 77 196 0.0 0.0 0.00 0.00 0.10 70 1019.1
20260901000005 78 196 0.0 0.0 0.00 0.00 0.10 70 1018.8
20260831235004 78 196 0.0 0.0 0.00 0.00 0.10 69 1018.9
20260831234004 78 196 0.0 0.0 0.00 0.00 0.10 69 1019.1
20260831233004 79 196 0.0 0.0 0.00 0.00 0.10 68 1019.2
20260831232004 79 196 0.0 0.0 0.00 0.00 0.10 68 1019.1
20260831231005 80 196 0.0 0.0 0.00 0.00 0.10 69 1019.1
20260831225004 80 196 0.0 0.0 0.00 0.00 0.10 68 1019.3
20260831223005 81 205 0.0 0.0 0.00 0.00 0.10 67 1019.4
20260831222004 81 205 0.0 0.0 0.00 0.00 0.10 66 1019.5
20260831221004 81 205 0.0 0.0 0.00 0.00 0.10 66 1019.6
20260831220004 82 205 0.0 0.0 0.00 0.00 0.10 64 1019.6
20260831215004 82 205 0.0 0.0 0.00 0.00 0.10 63 1019.6
20260831214004 82 179 0.0 0.0 0.00 0.00 0.10 64 1019.7
20260831212004 82 198 0.0 0.0 0.00 0.00 0.10 63 1019.7
20260831210004 82 198 0.0 0.0 0.00 0.00 0.10 63 1020.1
20260831204004 83 198 0.0 0.0 0.00 0.00 0.10 59 1020.0
20260831203005 82 202 0.0 0.0 0.00 0.00 0.10 61 1020.0
20260831202004 82 157 0.0 0.0 0.00 0.00 0.10 60 1020.1
20260831200004 82 155 0.0 0.0 0.00 0.00 0.10 62 1020.2
20260831195004 82 155 0.0 0.0 0.00 0.00 0.10 59 1020.2
20260831194004 83 155 0.0 0.0 0.00 0.00 0.10 62 1020.4
20260831193004 83 155 0.0 0.0 0.00 0.00 0.10 60 1020.3
20260831192005 82 155 0.0 0.0 0.00 0.00 0.10 60 1020.5
20260831191004 82 163 0.0 0.0 0.00 0.00 0.10 60 1020.5
20260831190005 82 162 0.0 0.0 0.00 0.00 0.10 58 1020.6
20260831184004 83 165 0.0 0.0 0.00 0.00 0.10 59 1020.6
20260831183004 82 148 0.0 0.0 0.00 0.00 0.10 59 1020.6
20260831180004 82 268 0.0 0.0 0.00 0.00 0.10 55 1020.7
20260831175005 81 259 0.0 0.0 0.00 0.00 0.10 68 1020.8
20260831174004 80 251 0.0 0.0 0.00 0.00 0.10 61 1020.8
20260831173004 80 255 0.0 0.0 0.00 0.00 0.10 63 1021.0
20260831172005 81 260 0.0 0.0 0.00 0.00 0.10 64 1021.0
20260831165004 81 200 0.0 0.0 0.00 0.00 0.10 66 1021.1
20260831164004 79 263 0.0 0.0 0.00 0.00 0.10 62 1021.4
20260831163004 79 175 0.0 0.0 0.00 0.00 0.10 64 1021.1
20260831160004 79 183 0.0 0.0 0.00 0.00 0.10 66 1021.2
20260831155005 79 116 0.0 0.0 0.00 0.00 0.10 66 1021.2
20260831154004 78 198 0.0 0.0 0.00 0.00 0.10 70 1021.1
20260831153005 77 201 0.0 0.0 0.00 0.00 0.10 72 1021.3
20260831152005 75 298 0.0 0.0 0.00 0.00 0.10 79 1021.3
20260831151004 73 297 0.0 0.0 0.00 0.00 0.10 88 1021.3
20260831150005 73 297 0.0 0.0 0.00 0.00 0.10 88 1021.5
20260831145004 73 298 0.0 0.0 0.00 0.00 0.10 88 1021.6
20260831144004 73 298 0.0 0.0 0.00 0.00 0.10 88 1021.8
20260831143004 72 298 0.0 0.0 0.00 0.00 0.10 88 1021.8
20260831142004 72 298 0.0 0.0 0.00 0.00 0.10 88 1021.7
20260831141004 72 298 0.0 0.0 0.00 0.00 0.10 89 1021.5
20260831140004 72 298 0.0 0.0 0.00 0.00 0.10 89 1021.4
20260831135005 72 298 0.0 0.0 0.00 0.00 0.10 88 1021.4
20260831134004 73 298 0.0 0.0 0.00 0.00 0.10 89 1021.4
20260831133004 73 298 0.0 0.0 0.00 0.00 0.10 89 1021.4
20260831132004 73 300 0.0 0.0 0.00 0.00 0.10 89 1021.3
20260831131004 73 300 0.0 0.0 0.00 0.00 0.10 89 1021.3
20260831130004 72 300 0.0 0.0 0.00 0.00 0.10 88 1021.6
20260831125004 72 301 0.0 0.0 0.00 0.00 0.10 88 1021.6
20260831124004 72 302 0.0 0.0 0.00 0.00 0.10 88 1021.4
20260831123004 72 304 0.0 0.0 0.00 0.00 0.10 88 1021.3
20260831122004 72 303 0.0 0.0 0.00 0.00 0.10 87 1021.3
20260831121004 72 304 0.0 0.0 0.00 0.00 0.10 87 1021.3
20260831120004 72 304 0.0 0.0 0.00 0.00 0.10 87 1021.3
20260831114004 71 304 0.0 0.0 0.00 0.00 0.10 87 1021.0
20260831113004 71 304 0.0 0.0 0.00 0.00 0.10 86 1021.0
20260831111004 71 303 0.0 0.0 0.00 0.00 0.10 86 1020.5
20260831110004 72 304 0.0 0.0 0.00 0.00 0.10 86 1020.5
20260831105004 72 304 0.0 0.0 0.00 0.00 0.10 86 1020.6
20260831104004 72 304 0.0 0.0 0.00 0.00 0.10 86 1020.5
20260831102004 71 304 0.0 0.0 0.00 0.00 0.10 85 1020.5
20260831101004 71 304 0.0 0.0 0.00 0.00 0.10 85 1020.4
20260831100004 71 304 0.0 0.0 0.00 0.00 0.10 85 1020.4
20260831095004 72 304 0.0 0.0 0.00 0.00 0.10 84 1020.2